EW2270 Weather Reports


time (UTC)temp
C
wind
direction
speed
KPH
gust
KPH
rain 1hr
cm
rain 24hr
cm
rain mn
cm
humidity
%
barometer
mb
20260901103023 14 141 0.0 0.0 0.00 0.00 0.00 49 1005.6
20260901101523 14 141 0.0 1.6 0.00 0.00 0.00 50 1005.7
20260901100021 13 142 0.0 1.6 0.00 0.00 0.00 50 1005.7
20260901094520 15 142 0.0 6.4 0.00 0.00 0.00 48 1005.8
20260901093021 15 165 1.6 6.4 0.00 0.00 0.00 49 1005.9
20260901091519 15 156 4.8 9.7 0.00 0.00 0.00 47 1006.0
20260901090017 14 134 3.2 8.0 0.00 0.00 0.00 47 1005.9
20260901084513 15 141 3.2 6.4 0.00 0.00 0.00 45 1006.1
20260901083013 15 133 3.2 6.4 0.00 0.00 0.00 44 1006.1
20260901081511 15 162 4.8 8.0 0.00 0.00 0.00 42 1006.1
20260901080110 15 155 3.2 6.4 0.00 0.00 0.00 43 1006.0
20260901074508 15 153 3.2 8.0 0.00 0.00 0.00 42 1005.9
20260901073009 16 165 1.6 11.3 0.00 0.00 0.00 40 1005.9
20260901071505 16 199 6.4 9.7 0.00 0.00 0.00 40 1005.8
20260901070001 16 132 1.6 8.0 0.00 0.00 0.00 40 1005.7
20260901064601 16 149 4.8 8.0 0.00 0.00 0.00 39 1005.8
20260901063110 16 145 1.6 6.4 0.00 0.00 0.00 40 1005.7
20260901061627 16 184 3.2 8.0 0.00 0.00 0.00 39 1005.6
20260901060101 17 155 3.2 9.7 0.00 0.00 0.00 38 1005.8
20260901054559 17 150 6.4 9.7 0.00 0.00 0.00 38 1005.8
20260901053109 17 148 1.6 8.0 0.00 0.00 0.00 38 1006.0
20260901051558 17 160 6.4 8.0 0.00 0.00 0.00 37 1006.0
20260901050057 17 134 3.2 9.7 0.00 0.00 0.00 36 1006.0
20260901044602 17 136 6.4 11.3 0.00 0.00 0.00 36 1006.0
20260901043059 18 134 8.0 11.3 0.00 0.00 0.00 35 1005.9
20260901041556 17 143 6.4 9.7 0.00 0.00 0.00 35 1005.9
20260901040055 18 132 3.2 6.4 0.00 0.00 0.00 32 1005.9
20260901034555 20 158 0.0 3.2 0.00 0.00 0.00 31 1005.8
20260901033053 20 131 0.0 3.2 0.00 0.00 0.00 31 1005.7
20260901031558 21 240 0.0 1.6 0.00 0.00 0.00 29 1005.5
20260901030053 22 240 0.0 0.0 0.00 0.00 0.00 28 1005.4
20260901024554 23 94 1.6 4.8 0.00 0.00 0.00 27 1005.3
20260901023051 24 339 1.6 4.8 0.00 0.00 0.00 25 1005.4
20260901021551 26 6 3.2 9.7 0.00 0.00 0.00 23 1005.5
20260901020106 27 17 6.4 14.5 0.00 0.00 0.00 22 1005.6
20260901014546 27 18 9.7 16.1 0.00 0.00 0.00 21 1005.7
20260901013045 28 28 14.5 20.9 0.00 0.00 0.00 20 1005.8
20260901011548 28 13 12.9 22.5 0.00 0.00 0.00 20 1005.8
20260901010043 28 23 14.5 24.1 0.00 0.00 0.00 19 1006.0
20260901004555 28 28 14.5 22.5 0.00 0.00 0.00 19 1006.1
20260901003042 28 352 14.5 22.5 0.00 0.00 0.00 19 1006.3
20260901001539 28 37 16.1 25.7 0.00 0.00 0.00 20 1006.5
20260901000055 28 41 17.7 27.4 0.00 0.00 0.00 20 1006.8
20260831234536 28 29 14.5 25.7 0.00 0.00 0.00 20 1006.8
20260831233034 28 21 17.7 27.4 0.00 0.00 0.00 20 1006.9
20260831231534 28 23 17.7 24.1 0.00 0.00 0.00 20 1007.1
20260831230035 28 12 14.5 27.4 0.00 0.00 0.00 21 1007.3
20260831224526 28 29 12.9 24.1 0.00 0.00 0.00 21 1007.6
20260831223024 28 15 20.9 27.4 0.00 0.00 0.00 22 1007.7
20260831221521 28 15 17.7 25.7 0.00 0.00 0.00 23 1008.0
20260831220017 27 34 22.5 30.6 0.00 0.00 0.00 23 1008.2
20260831214515 27 37 16.1 32.2 0.00 0.00 0.00 24 1008.5
20260831213012 27 356 16.1 24.1 0.00 0.00 0.00 24 1008.8
20260831211509 27 51 16.1 27.4 0.00 0.00 0.00 24 1009.1
20260831210006 26 22 12.9 25.7 0.00 0.00 0.00 24 1009.3
20260831204504 26 45 14.5 25.7 0.00 0.00 0.00 24 1009.5
20260831203001 26 77 16.1 29.0 0.00 0.00 0.00 25 1009.7
20260831201600 26 44 16.1 25.7 0.00 0.00 0.00 24 1010.0
20260831200058 26 17 11.3 25.7 0.00 0.00 0.00 25 1010.3
20260831194632 26 49 12.9 22.5 0.00 0.00 0.00 25 1010.5
20260831193053 26 49 12.9 20.9 0.00 0.00 0.00 26 1010.5
20260831191548 25 316 4.8 17.7 0.00 0.00 0.00 26 1010.9
20260831190059 25 30 9.7 16.1 0.00 0.00 0.00 27 1011.3
20260831184541 24 322 3.2 12.9 0.00 0.00 0.00 27 1011.6
20260831183037 23 39 4.8 12.9 0.00 0.00 0.00 28 1011.9
20260831181538 22 266 0.0 9.7 0.00 0.00 0.00 30 1012.1
20260831180028 22 16 4.8 12.9 0.00 0.00 0.00 30 1012.3
20260831174528 21 15 4.8 8.0 0.00 0.00 0.00 32 1012.6
20260831173022 21 29 4.8 9.7 0.00 0.00 0.00 32 1012.7
20260831171518 20 306 3.2 8.0 0.00 0.00 0.00 34 1012.9
20260831170013 18 219 1.6 6.4 0.00 0.00 0.00 37 1012.9
20260831164513 18 305 0.0 6.4 0.00 0.00 0.00 39 1013.0
20260831163007 17 319 3.2 6.4 0.00 0.00 0.00 40 1013.1
20260831161503 16 43 0.0 6.4 0.00 0.00 0.00 44 1013.4
20260831160107 15 5 1.6 6.4 0.00 0.00 0.00 47 1013.5
20260831154628 15 330 1.6 3.2 0.00 0.00 0.00 48 1013.5
20260831153051 13 276 1.6 4.8 0.00 0.00 0.00 51 1013.6
20260831151547 13 154 0.0 3.2 0.00 0.00 0.00 56 1013.8
20260831150046 12 148 0.0 0.0 0.00 0.00 0.00 56 1013.8
20260831144541 11 148 0.0 0.0 0.00 0.00 0.00 59 1013.8
20260831143103 11 148 0.0 0.0 0.00 0.00 0.00 59 1013.7
20260831141552 8 148 0.0 1.6 0.00 0.00 0.00 62 1013.5
20260831140044 8 148 0.0 1.6 0.00 0.00 0.00 65 1013.5
20260831134538 7 148 0.0 3.2 0.00 0.00 0.00 68 1013.5
20260831133037 7 148 1.6 1.6 0.00 0.00 0.00 68 1013.4
20260831131536 6 148 0.0 3.2 0.00 0.00 0.00 70 1013.4
20260831130037 6 148 0.0 0.0 0.00 0.00 0.00 68 1013.3
20260831124532 8 148 0.0 0.0 0.00 0.00 0.00 66 1013.2
20260831123030 8 148 0.0 1.6 0.00 0.00 0.00 64 1013.3
20260831121530 8 148 1.6 3.2 0.00 0.00 0.00 65 1013.4
20260831120032 7 148 3.2 4.8 0.00 0.00 0.00 67 1013.4
20260831114534 8 148 0.0 0.0 0.00 0.00 0.00 65 1013.4
20260831113029 7 148 1.6 1.6 0.00 0.00 0.00 67 1013.3
20260831111528 7 148 0.0 1.6 0.00 0.00 0.00 63 1013.4
20260831110025 7 148 0.0 3.2 0.00 0.00 0.00 66 1013.4
20260831104522 7 148 0.0 6.4 0.00 0.00 0.00 66 1013.4